Погода в Таболе

Россия / Тульская область     53°51′01″N   38°46′21″E
темп.,
°C
ветер,
м/с
пор.,
м/с
влажн.,
%
обл.,
%
осадки,
мм/ч
давл.,
гПа
погр.,
м
17 апреля, сб
сб1700:00+10юв338744 0.3 101970
03:00+9всв22834 0.3 101913
06:00+8всв3794100 0.0 1018127
09:00+11всв61082100 0.3 1018460
12:00+12в5982100 1.6 1017653
15:00+10юв4118596 3.6 1018693
18:00+8ююз3588100 1.3 1018327
21:00+8ю2489100 1.8 1019263
18 апреля, вс
вс1800:00+7юз2291100 0.0 101846
03:00+6вюв1190100 0.0 101910
06:00+5ю229089 0.0 101927
09:00+8юв127574 0.0 1020485
12:00+7юз3486100 0.9 1020377
15:00+10вюв2269100 1.8 1020815
18:00+10вюв1266100 0.0 1020681
21:00+9св3482100 0.3 1020123
19 апреля, пн
пн1900:00+7всв4796100 0.5 1021243
03:00+6всв3697100 0.8 1021183
06:00+6всв4895100 0.2 1021274
09:00+8в678598 0.3 1021505
12:00+11в676891 0.4 10201080
15:00+10всв7873100 1.8 1020959
18:00+8всв81184100 1.9 1019938
21:00+7всв81189100 2.4 1020896
20 апреля, вт
вт2000:00+6в81189100 0.4 1019862
03:00+6всв71391100 1.8 1017681
06:00+5в81593100 1.1 1016666
09:00+5в81593100 2.2 1014756
12:00+6в81693100 0.9 1013786
15:00+6в112092100 3.2 1008937
18:00+6в132392100 7.6 10041049
21:00+8вюв122392100 11.6 10011147
21 апреля, ср
ср2100:00+10юв111995100 1.4 10001052
03:00+8ююв8158672 1.9 1000759
06:00+8ююв91486100 0.3 10001185
09:00+4ююз81395100 0.8 1004770
12:00+6ююз81480100 0.0 10081204
15:00+8ююз81373100 0.1 10101454
18:00+9ююз7126897 0.0 1012974
21:00+7ю41082100 0.0 1014234